Regional Weather Roundup
Issued by NWS Mobile, AL

Home | Current Version | Previous Version | Text Only | Print | Product List | Glossary On
Versions: 1 2 3 4 5 6 7 8 9 10 11 12 13 14 15 16 17 18 19 20 21 22 23 24 25 26 27 28 29 30 31 32 33 34 35 36 37 38 39 40 41 42 43 44 45 46 47 48 49 50
000
ASUS44 KMOB 271312
RWRMOB
REGIONAL WEATHER ROUNDUP
NATIONAL WEATHER SERVICE MOBILE AL
800 AM CDT TUE JUN 27 2017

NOTE: "FAIR" INDICATES FEW OR NO CLOUDS BELOW 12,000 FEET WITH NO
      SIGNIFICANT WEATHER AND/OR OBSTRUCTIONS TO VISIBILITY.

  * THESE STATIONS ARE PART OF THE UNIVERSITY OF SOUTH ALABAMA
    MESONET AND ARE NOT UNDER NWS OR FAA QUALITY CONTROL.

ALZ061>064-271400-
COASTAL ALABAMA

CITY           SKY/WX    TMP DP  RH WIND       PRES   REMARKS
MOBILE REG APT CLOUDY    76  64  66 N6        30.05R
BROOKLEY FIELD CLOUDY    77  69  76 N6        30.05R
USA CAMPUS*      N/A     75  64  69 CALM      30.05R
DOG RIVER*       N/A    N/A N/A N/A MISG        N/A


CITY           SKY/WX    TMP DP  RH WIND       PRES   REMARKS
GULF SHORES    PTSUNNY   73  71  91 NE9       30.02S

$$

ALZ051>060-271400-
INTERIOR SOUTHWEST AND SOUTH CENTRAL ALABAMA

CITY           SKY/WX    TMP DP  RH WIND       PRES   REMARKS
GREENVILLE     CLOUDY    73  63  70 NE5       30.06R
EVERGREEN      CLOUDY    70  65  84 CALM      30.05S
ATMORE*        NOT AVBL
ANDALUSIA/OPP  CLOUDY    75  67  76 NE5       30.05R
ANDALUSIA*       N/A     72  66  83 NE7       30.05S
FLORALA APT    MOSUNNY   77  68  73 E5        30.06R
FLORALA*         N/A     77  68  73 CALM      30.74R

$$

FLZ001>006-271400-
WESTERN FLORIDA PANHANDLE

CITY           SKY/WX    TMP DP  RH WIND       PRES   REMARKS
PENSACOLA      CLOUDY    78  68  71 NE3       30.02S
NAS PENSACOLA  PTSUNNY   77  69  76 N5        30.02R
MILTON         PTSUNNY   74  69  85 CALM      30.04R
WHTNG S FIELD  CLOUDY    78  70  76 NE5       30.03R


CITY           SKY/WX    TMP DP  RH WIND       PRES   REMARKS
JAY*             N/A     73  66  78 CALM      30.05R
CRESTVIEW      CLOUDY    77  68  73 E3        30.05R
VALPARAISO     NOT AVBL
DESTIN         CLOUDY    81  78  91 E5        30.02R

$$

MSZ076-079-271400-
INTERIOR SOUTHEAST MISSISSIPPI

CITY           SKY/WX    TMP DP  RH WIND       PRES   REMARKS
LEAKESVILLE*   NOT AVBL
AGRICOLA*        N/A     72  63  73 NE2       30.04

$$

MARINE OBSERVATIONS

STATION/POSITION TIME  TEMP    WIND        PRES    WAVE
                       AIR SEA DIR/SP/G            HT/PER
                 (UTC) (F)     (DEG/KT/KT) (MB)    (FT/S)
PASCAGOULA       1248   75     360/  5/  7 1016.9R
PETIT BOIS ISLND 1248   77      40/  6/  8 1017.7R
GRAND BAY        1130   73      10/  5     1017.0S
KATRINA CUT      1230   76      40/  9     1016.6S
CEDAR POINT      1230   78      30/  6     1016.6R
E DAUPHIN ISLAND 1200   78      30/ 10/ 11 1016.2S
MIDDLE BAY LIGHT 1230   77      40/  9     1016.6R
USCG MOBILE BAY  1248   75 80   10/  4/  5 1017.7R
STATE DOCKS      1248   76 79              1017.1R
MEAHER PARK      1230   73     340/  2     1016.9R
FORT MORGAN      1248   78      40/  7/  8   N/A
12 S ORANGE BCH  1150   78 82   40/  8/ 10 1015.9R   1/ 5
PENSACOLA BAY    1248   77 81              1016.8R
64 S DAUPHIN ISL 1250   82 84  320/  2/  4 1016.6R   2/ 7
67 S FORT MORGAN 1230   80        CALM     1016.6R

$$

SELECTED LOCATIONS ACROSS THE REGION

CITY           SKY/WX    TMP DP  RH WIND       PRES   REMARKS
NEW ORLEANS    PTSUNNY   80  73  79 CALM      30.02R
GULFPORT       PTSUNNY   74  64  71 CALM      30.03R
PASCAGOULA AP  CLOUDY    74  65  73 N5        30.04R
PASCAGOULA*    NOT AVBL
HATTIESBURG    CLOUDY    71  66  84 N3        30.06S
LAUREL         CLOUDY    70  63  78 N3        30.08R
MERIDIAN       PTSUNNY   73  68  84 N5        30.08R
JACKSON        MOSUNNY   74  65  73 NE3       30.08R
MONTGOMERY     PTSUNNY   74  63  68 NE5       30.07R
TROY           MOSUNNY   72  67  84 NE3       30.07R
ASHFORD*         N/A     72  66  83 NE7       30.05S
DOTHAN         MOSUNNY   75  70  84 NE5       30.08R
PANAMA CITY    PTSUNNY   79  71  76 CALM      30.02R

$$




USA.gov is the U.S. government's official web portal to all federal, state and local government web resources and services.